Time,TemperatureF,DewpointF,PressureIn,WindDirection,WindDirectionDegrees,WindSpeedMPH,WindSpeedGustMPH,Humidity,HourlyPrecipIn,Conditions,Clouds,dailyrainin,SoftwareType,DateUTC
2013-07-18 00:07:00,84.6,56.2,30.02,ENE,68,5.1,7.4,38,0.00,,,0.00,WUHU216HW,2013-07-18 07:07:00,
2013-07-18 00:17:00,84.6,57.0,30.02,ENE,68,4.5,9.8,39,0.00,,,0.00,WUHU216HW,2013-07-18 07:17:00,
2013-07-18 00:27:00,84.4,56.8,30.02,East,90,3.4,5.6,39,0.00,,,0.00,WUHU216HW,2013-07-18 07:27:00,
2013-07-18 00:37:00,84.2,56.6,30.02,ENE,68,1.1,6.0,39,0.00,,,0.00,WUHU216HW,2013-07-18 07:37:00,
2013-07-18 00:47:00,84.1,56.4,30.03,East,90,6.3,6.9,39,0.00,,,0.00,WUHU216HW,2013-07-18 07:47:00,
2013-07-18 00:57:00,84.2,55.8,30.02,North,0,2.7,4.0,38,0.00,,,0.00,WUHU216HW,2013-07-18 07:57:00,
2013-07-18 01:07:00,84.2,55.8,30.02,NE,45,0.9,6.9,38,0.00,,,0.00,WUHU216HW,2013-07-18 08:07:00,
2013-07-18 01:17:00,84.1,55.7,30.02,East,90,1.1,2.7,38,0.00,,,0.00,WUHU216HW,2013-07-18 08:17:00,
2013-07-18 01:27:00,84.1,55.7,30.02,NE,45,4.5,6.5,38,0.00,,,0.00,WUHU216HW,2013-07-18 08:27:00,
2013-07-18 01:37:00,83.9,55.5,30.01,NE,45,1.3,4.7,38,0.00,,,0.00,WUHU216HW,2013-07-18 08:37:00,
2013-07-18 01:48:00,83.7,55.4,30.01,East,90,1.6,4.7,38,0.00,,,0.00,WUHU216HW,2013-07-18 08:48:00,
2013-07-18 01:58:00,83.3,55.8,30.01,ENE,68,3.1,6.3,39,0.00,,,0.00,WUHU216HW,2013-07-18 08:58:00,
2013-07-18 02:08:00,83.2,55.6,30.00,ESE,113,4.9,5.8,39,0.00,,,0.00,WUHU216HW,2013-07-18 09:08:00,
2013-07-18 02:18:00,83.0,55.5,30.00,SE,135,1.3,4.7,39,0.00,,,0.00,WUHU216HW,2013-07-18 09:18:00,
2013-07-18 02:28:00,82.6,56.0,30.00,ENE,68,5.6,5.6,40,0.00,,,0.00,WUHU216HW,2013-07-18 09:28:00,
2013-07-18 02:38:00,82.4,55.8,30.00,NE,45,3.4,4.9,40,0.00,,,0.00,WUHU216HW,2013-07-18 09:38:00,
2013-07-18 02:48:00,82.4,55.8,30.00,East,90,3.4,5.4,40,0.00,,,0.00,WUHU216HW,2013-07-18 09:48:00,
2013-07-18 02:58:00,82.3,56.3,30.00,East,90,6.9,6.9,41,0.00,,,0.00,WUHU216HW,2013-07-18 09:58:00,
2013-07-18 03:08:00,81.9,56.5,30.00,NNE,23,2.0,6.7,42,0.00,,,0.00,WUHU216HW,2013-07-18 10:08:00,
2013-07-18 03:18:00,81.7,57.0,30.00,ENE,68,7.6,13.4,43,0.00,,,0.00,WUHU216HW,2013-07-18 10:18:00,
2013-07-18 03:28:00,81.5,56.8,30.00,ENE,68,8.7,10.3,43,0.00,,,0.00,WUHU216HW,2013-07-18 10:28:00,
2013-07-18 03:38:00,81.4,57.2,30.00,East,90,5.4,9.6,44,0.00,,,0.00,WUHU216HW,2013-07-18 10:38:00,
2013-07-18 03:48:00,81.2,57.2,30.00,ESE,113,5.4,12.8,44,0.00,,,0.00,WUHU216HW,2013-07-18 10:48:00,
2013-07-18 03:58:00,80.8,56.8,30.00,East,90,3.8,7.4,44,0.00,,,0.00,WUHU216HW,2013-07-18 10:58:00,
2013-07-18 04:08:00,80.8,57.4,30.00,ESE,113,4.0,8.9,45,0.00,,,0.00,WUHU216HW,2013-07-18 11:08:00,
2013-07-18 04:18:00,80.6,56.6,30.00,SE,135,1.8,6.0,44,0.00,,,0.00,WUHU216HW,2013-07-18 11:18:00,
2013-07-18 04:28:00,80.6,57.2,30.01,ENE,68,2.5,8.7,45,0.00,,,0.00,WUHU216HW,2013-07-18 11:28:00,
2013-07-18 04:38:00,80.5,57.1,30.00,NNE,23,4.0,7.6,45,0.00,,,0.00,WUHU216HW,2013-07-18 11:38:00,
2013-07-18 04:48:00,80.3,56.9,30.01,East,90,1.8,9.2,45,0.00,,,0.00,WUHU216HW,2013-07-18 11:48:00,
2013-07-18 04:59:00,79.9,57.3,30.00,ESE,113,7.6,8.5,46,0.00,,,0.00,WUHU216HW,2013-07-18 11:59:00,
2013-07-18 05:09:00,79.9,57.3,30.01,East,90,6.5,8.7,46,0.00,,,0.00,WUHU216HW,2013-07-18 12:09:00,
2013-07-18 05:19:00,79.9,57.3,30.01,ENE,68,3.1,9.2,46,0.00,,,0.00,WUHU216HW,2013-07-18 12:19:00,
2013-07-18 05:29:00,79.9,57.3,30.01,East,90,5.1,8.7,46,0.00,,,0.00,WUHU216HW,2013-07-18 12:29:00,
2013-07-18 05:39:00,79.9,57.3,30.02,ENE,68,5.1,11.4,46,0.00,,,0.00,WUHU216HW,2013-07-18 12:39:00,
2013-07-18 05:49:00,79.9,57.3,30.02,ESE,113,7.2,9.2,46,0.00,,,0.00,WUHU216HW,2013-07-18 12:49:00,
2013-07-18 05:59:00,79.9,57.3,30.02,East,90,6.3,8.3,46,0.00,,,0.00,WUHU216HW,2013-07-18 12:59:00,
2013-07-18 06:09:00,80.1,57.3,30.02,NNW,338,1.3,8.7,46,0.00,,,0.00,WUHU216HW,2013-07-18 13:09:00,
2013-07-18 06:19:00,80.8,57.4,30.02,ENE,68,9.8,9.8,45,0.00,,,0.00,WUHU216HW,2013-07-18 13:19:00,
2013-07-18 06:29:00,81.2,57.7,30.02,East,90,8.3,8.3,45,0.00,,,0.00,WUHU216HW,2013-07-18 13:29:00,
2013-07-18 06:39:00,81.4,57.9,30.02,ENE,68,3.6,10.7,45,0.00,,,0.00,WUHU216HW,2013-07-18 13:39:00,
2013-07-18 06:49:00,81.7,58.2,30.03,East,90,3.4,10.7,45,0.00,,,0.00,WUHU216HW,2013-07-18 13:49:00,
2013-07-18 06:59:00,81.7,58.2,30.03,ENE,68,7.2,11.0,45,0.00,,,0.00,WUHU216HW,2013-07-18 13:59:00,
2013-07-18 07:09:00,82.3,58.1,30.03,NNE,23,3.4,9.8,44,0.00,,,0.00,WUHU216HW,2013-07-18 14:09:00,
2013-07-18 07:19:00,82.6,57.8,30.03,ESE,113,9.2,11.9,43,0.00,,,0.00,WUHU216HW,2013-07-18 14:19:00,
2013-07-18 07:29:00,82.1,58.0,30.03,ENE,68,6.7,12.5,44,0.00,,,0.00,WUHU216HW,2013-07-18 14:29:00,
2013-07-18 07:39:00,81.7,58.2,30.03,WSW,248,4.0,12.8,45,0.00,,,0.00,WUHU216HW,2013-07-18 14:39:00,
2013-07-18 07:49:00,81.5,58.1,30.04,East,90,7.4,10.5,45,0.00,,,0.00,WUHU216HW,2013-07-18 14:49:00,
2013-07-18 08:00:00,81.7,58.2,30.04,East,90,7.8,7.8,45,0.00,,,0.00,WUHU216HW,2013-07-18 15:00:00,
2013-07-18 08:10:00,81.9,58.4,30.04,ENE,68,3.6,10.5,45,0.00,,,0.00,WUHU216HW,2013-07-18 15:10:00,
2013-07-18 08:20:00,83.0,58.8,30.04,ESE,113,4.7,9.2,44,0.00,,,0.00,WUHU216HW,2013-07-18 15:20:00,
2013-07-18 08:30:00,84.4,58.9,30.04,ESE,113,6.7,8.7,42,0.00,,,0.00,WUHU216HW,2013-07-18 15:30:00,
2013-07-18 08:40:00,83.7,58.1,30.04,NE,45,6.5,10.1,42,0.00,,,0.00,WUHU216HW,2013-07-18 15:40:00,
2013-07-18 08:50:00,84.2,58.7,30.03,East,90,5.8,10.5,42,0.00,,,0.00,WUHU216HW,2013-07-18 15:50:00,
2013-07-18 09:00:00,85.5,59.2,30.03,ENE,68,4.0,9.8,41,0.00,,,0.00,WUHU216HW,2013-07-18 16:00:00,
2013-07-18 09:10:00,85.3,59.1,30.03,East,90,6.7,9.6,41,0.00,,,0.00,WUHU216HW,2013-07-18 16:10:00,
2013-07-18 09:20:00,85.3,59.1,30.03,NE,45,3.8,9.8,41,0.00,,,0.00,WUHU216HW,2013-07-18 16:20:00,
2013-07-18 09:30:00,85.7,58.7,30.03,ENE,68,4.0,7.6,40,0.00,,,0.00,WUHU216HW,2013-07-18 16:30:00,
2013-07-18 09:40:00,85.9,58.9,30.02,NE,45,4.9,10.7,40,0.00,,,0.00,WUHU216HW,2013-07-18 16:40:00,
2013-07-18 09:50:00,86.6,60.1,30.02,ENE,68,6.3,11.0,41,0.00,,,0.00,WUHU216HW,2013-07-18 16:50:00,
2013-07-18 10:00:00,86.9,59.0,30.02,NNE,23,3.1,9.4,39,0.00,,,0.00,WUHU216HW,2013-07-18 17:00:00,
2013-07-18 10:10:00,87.5,59.5,30.01,East,90,8.7,12.5,39,0.00,,,0.00,WUHU216HW,2013-07-18 17:10:00,
2013-07-18 10:20:00,88.6,58.9,30.01,ENE,68,7.8,10.5,37,0.00,,,0.00,WUHU216HW,2013-07-18 17:20:00,
2013-07-18 10:31:00,88.7,59.0,30.01,NNE,23,6.9,9.2,37,0.00,,,0.00,WUHU216HW,2013-07-18 17:31:00,
2013-07-18 10:41:00,88.7,58.1,30.01,West,270,5.4,7.4,36,0.00,,,0.00,WUHU216HW,2013-07-18 17:41:00,
2013-07-18 10:51:00,88.2,59.3,30.01,East,90,11.9,11.9,38,0.00,,,0.00,WUHU216HW,2013-07-18 17:51:00,
2013-07-18 11:01:00,88.9,59.1,30.00,ENE,68,6.9,10.5,37,0.00,,,0.00,WUHU216HW,2013-07-18 18:01:00,
2013-07-18 11:11:00,89.3,57.9,30.00,ENE,68,6.0,8.7,35,0.00,,,0.00,WUHU216HW,2013-07-18 18:11:00,
2013-07-18 11:21:00,89.6,59.0,30.00,ENE,68,11.9,11.9,36,0.00,,,0.00,WUHU216HW,2013-07-18 18:21:00,
2013-07-18 11:31:00,90.0,58.5,30.00,North,0,5.4,13.0,35,0.00,,,0.00,WUHU216HW,2013-07-18 18:31:00,
2013-07-18 11:41:00,90.2,57.9,30.00,East,90,12.5,12.5,34,0.00,,,0.00,WUHU216HW,2013-07-18 18:41:00,
2013-07-18 11:51:00,90.9,58.5,30.00,ENE,68,2.7,7.4,34,0.00,,,0.00,WUHU216HW,2013-07-18 18:51:00,
2013-07-18 12:01:00,90.9,58.5,30.00,ESE,113,5.4,8.1,34,0.00,,,0.00,WUHU216HW,2013-07-18 19:01:00,
2013-07-18 12:11:00,91.3,59.6,30.00,ENE,68,7.6,9.2,35,0.00,,,0.00,WUHU216HW,2013-07-18 19:11:00,
2013-07-18 12:21:00,91.1,58.7,30.00,NE,45,9.6,10.1,34,0.00,,,0.00,WUHU216HW,2013-07-18 19:21:00,
2013-07-18 12:31:00,92.0,58.6,29.99,ENE,68,11.9,11.9,33,0.00,,,0.00,WUHU216HW,2013-07-18 19:31:00,
2013-07-18 12:41:00,92.0,59.4,29.99,NNW,338,3.4,9.6,34,0.00,,,0.00,WUHU216HW,2013-07-18 19:41:00,
2013-07-18 12:51:00,92.3,59.0,29.99,East,90,5.8,11.4,33,0.00,,,0.00,WUHU216HW,2013-07-18 19:51:00,
2013-07-18 13:01:00,93.1,57.9,29.98,East,90,6.5,11.6,31,0.00,,,0.00,WUHU216HW,2013-07-18 20:01:00,
2013-07-18 13:11:00,94.0,58.7,29.98,NNE,23,4.5,10.3,31,0.00,,,0.00,WUHU216HW,2013-07-18 20:11:00,
2013-07-18 13:21:00,93.4,58.2,29.98,North,0,4.3,9.6,31,0.00,,,0.00,WUHU216HW,2013-07-18 20:21:00,
2013-07-18 13:32:00,92.9,58.6,29.97,SW,225,5.1,10.5,32,0.00,,,0.00,WUHU216HW,2013-07-18 20:32:00,
2013-07-18 13:42:00,92.9,58.6,29.96,East,90,5.4,7.6,32,0.00,,,0.00,WUHU216HW,2013-07-18 20:42:00,
2013-07-18 13:52:00,93.1,58.7,29.96,NNW,338,4.0,9.2,32,0.00,,,0.00,WUHU216HW,2013-07-18 20:52:00,
2013-07-18 14:02:00,93.1,58.7,29.96,ESE,113,9.6,12.3,32,0.00,,,0.00,WUHU216HW,2013-07-18 21:02:00,
2013-07-18 14:12:00,94.0,58.7,29.95,ENE,68,6.9,9.8,31,0.00,,,0.00,WUHU216HW,2013-07-18 21:12:00,
2013-07-18 14:22:00,94.1,58.9,29.95,NNE,23,6.5,11.9,31,0.00,,,0.00,WUHU216HW,2013-07-18 21:22:00,
2013-07-18 14:32:00,95.0,58.9,29.94,ENE,68,7.6,9.2,30,0.00,,,0.00,WUHU216HW,2013-07-18 21:32:00,
2013-07-18 14:42:00,95.0,58.9,29.94,ENE,68,8.5,9.8,30,0.00,,,0.00,WUHU216HW,2013-07-18 21:42:00,
2013-07-18 14:52:00,95.4,58.1,29.93,East,90,4.9,11.2,29,0.00,,,0.00,WUHU216HW,2013-07-18 21:52:00,
2013-07-18 15:02:00,95.8,56.1,29.93,NE,45,8.3,9.4,27,0.00,,,0.00,WUHU216HW,2013-07-18 22:02:00,
2013-07-18 15:12:00,96.1,56.4,29.92,ESE,113,7.4,13.0,27,0.00,,,0.00,WUHU216HW,2013-07-18 22:12:00,
2013-07-18 15:22:00,96.8,57.0,29.91,ESE,113,3.4,9.2,27,0.00,,,0.00,WUHU216HW,2013-07-18 22:22:00,
2013-07-18 15:32:00,97.4,56.3,29.91,ENE,68,6.9,10.7,26,0.00,,,0.00,WUHU216HW,2013-07-18 22:32:00,
2013-07-18 15:42:00,97.2,56.3,29.90,ENE,68,4.7,10.5,26,0.00,,,0.00,WUHU216HW,2013-07-18 22:42:00,
2013-07-18 15:52:00,97.2,56.3,29.90,NE,45,6.0,7.4,26,0.00,,,0.00,WUHU216HW,2013-07-18 22:52:00,
2013-07-18 16:02:00,96.8,55.9,29.90,ENE,68,8.5,8.5,26,0.00,,,0.00,WUHU216HW,2013-07-18 23:02:00,
2013-07-18 16:13:00,96.8,55.9,29.89,ESE,113,6.9,8.7,26,0.00,,,0.00,WUHU216HW,2013-07-18 23:13:00,
2013-07-18 16:23:00,97.2,56.3,29.89,East,90,5.6,12.1,26,0.00,,,0.00,WUHU216HW,2013-07-18 23:23:00,
2013-07-18 16:33:00,97.0,57.2,29.89,East,90,6.9,11.9,27,0.00,,,0.00,WUHU216HW,2013-07-18 23:33:00,
2013-07-18 16:43:00,96.5,56.7,29.89,ENE,68,12.1,12.1,27,0.00,,,0.00,WUHU216HW,2013-07-18 23:43:00,
2013-07-18 16:53:00,95.6,56.0,29.90,ENE,68,10.1,10.3,27,0.00,,,0.00,WUHU216HW,2013-07-18 23:53:00,
2013-07-18 17:03:00,95.9,58.5,29.89,ENE,68,6.3,13.2,29,0.00,,,0.00,WUHU216HW,2013-07-19 00:03:00,
2013-07-18 17:13:00,95.8,58.3,29.89,ENE,68,5.4,12.5,29,0.00,,,0.00,WUHU216HW,2013-07-19 00:13:00,
2013-07-18 17:23:00,95.6,58.1,29.90,ENE,68,5.1,13.4,29,0.00,,,0.00,WUHU216HW,2013-07-19 00:23:00,
2013-07-18 17:33:00,94.9,58.7,29.90,NNE,23,5.1,10.5,30,0.00,,,0.00,WUHU216HW,2013-07-19 00:33:00,
2013-07-18 17:43:00,94.3,58.2,29.90,ENE,68,10.3,14.3,30,0.00,,,0.00,WUHU216HW,2013-07-19 00:43:00,
2013-07-18 17:53:00,93.6,58.4,29.90,NNE,23,6.0,12.8,31,0.00,,,0.00,WUHU216HW,2013-07-19 00:53:00,
2013-07-18 18:03:00,92.7,57.6,29.90,NE,45,8.3,11.4,31,0.00,,,0.00,WUHU216HW,2013-07-19 01:03:00,
2013-07-18 18:13:00,92.2,58.0,29.91,NE,45,4.7,13.0,32,0.00,,,0.00,WUHU216HW,2013-07-19 01:13:00,
2013-07-18 18:23:00,92.0,58.6,29.91,ENE,68,10.5,10.5,33,0.00,,,0.00,WUHU216HW,2013-07-19 01:23:00,
2013-07-18 18:33:00,91.3,58.1,29.92,ENE,68,6.5,9.2,33,0.00,,,0.00,WUHU216HW,2013-07-19 01:33:00,
2013-07-18 18:43:00,90.5,58.1,29.92,ESE,113,4.7,9.6,34,0.00,,,0.00,WUHU216HW,2013-07-19 01:43:00,
2013-07-18 18:53:00,90.0,58.5,29.93,East,90,7.6,11.0,35,0.00,,,0.00,WUHU216HW,2013-07-19 01:53:00,
2013-07-18 19:03:00,89.6,58.1,29.92,NE,45,4.7,9.2,35,0.00,,,0.00,WUHU216HW,2013-07-19 02:03:00,
2013-07-18 19:13:00,89.3,57.9,29.93,ENE,68,3.1,9.2,35,0.00,,,0.00,WUHU216HW,2013-07-19 02:13:00,
2013-07-18 19:23:00,89.1,58.5,29.93,ESE,113,6.3,7.4,36,0.00,,,0.00,WUHU216HW,2013-07-19 02:23:00,
2013-07-18 19:34:00,88.9,58.3,29.93,North,0,1.3,5.6,36,0.00,,,0.00,WUHU216HW,2013-07-19 02:34:00,
2013-07-18 19:44:00,88.6,58.1,29.94,East,90,2.0,4.3,36,0.00,,,0.00,WUHU216HW,2013-07-19 02:44:00,
2013-07-18 19:54:00,88.4,57.9,29.94,SE,135,0.9,3.1,36,0.00,,,0.00,WUHU216HW,2013-07-19 02:54:00,
2013-07-18 20:04:00,88.2,59.3,29.94,ESE,113,2.7,3.4,38,0.00,,,0.00,WUHU216HW,2013-07-19 03:04:00,
2013-07-18 20:14:00,87.8,59.9,29.94,NE,45,2.9,5.4,39,0.00,,,0.00,WUHU216HW,2013-07-19 03:14:00,
2013-07-18 20:24:00,87.7,59.7,29.95,ENE,68,0.9,5.4,39,0.00,,,0.00,WUHU216HW,2013-07-19 03:24:00,
2013-07-18 20:34:00,87.5,60.3,29.95,North,0,2.9,4.7,40,0.00,,,0.00,WUHU216HW,2013-07-19 03:34:00,
2013-07-18 20:44:00,87.5,60.3,29.95,ESE,113,6.3,8.5,40,0.00,,,0.00,WUHU216HW,2013-07-19 03:44:00,
2013-07-18 20:54:00,87.5,60.3,29.95,ENE,68,4.3,9.6,40,0.00,,,0.00,WUHU216HW,2013-07-19 03:54:00,
2013-07-18 21:04:00,87.3,60.2,29.95,ENE,68,4.9,7.2,40,0.00,,,0.00,WUHU216HW,2013-07-19 04:04:00,
2013-07-18 21:14:00,87.1,60.7,29.97,East,90,6.3,10.7,41,0.00,,,0.00,WUHU216HW,2013-07-19 04:14:00,
2013-07-18 21:24:00,86.4,61.9,29.97,NE,45,7.2,8.5,44,0.00,,,0.00,WUHU216HW,2013-07-19 04:24:00,
2013-07-18 21:34:00,85.5,62.4,29.97,NW,315,0.9,7.2,46,0.00,,,0.00,WUHU216HW,2013-07-19 04:34:00,
2013-07-18 21:44:00,85.0,61.8,29.97,NNE,23,1.1,5.1,46,0.00,,,0.00,WUHU216HW,2013-07-19 04:44:00,
2013-07-18 21:54:00,84.4,62.0,29.97,NE,45,6.9,6.9,47,0.00,,,0.00,WUHU216HW,2013-07-19 04:54:00,
2013-07-18 22:04:00,83.7,62.6,29.97,East,90,12.1,15.9,49,0.00,,,0.00,WUHU216HW,2013-07-19 05:04:00,
2013-07-18 22:14:00,83.5,61.7,29.97,ENE,68,4.0,8.7,48,0.00,,,0.00,WUHU216HW,2013-07-19 05:14:00,
2013-07-18 22:24:00,83.5,61.7,29.98,ESE,113,6.5,9.8,48,0.00,,,0.00,WUHU216HW,2013-07-19 05:24:00,
2013-07-18 22:34:00,83.5,61.7,29.98,East,90,7.6,11.4,48,0.00,,,0.00,WUHU216HW,2013-07-19 05:34:00,
2013-07-18 22:44:00,83.5,61.7,29.98,ESE,113,3.4,10.5,48,0.00,,,0.00,WUHU216HW,2013-07-19 05:44:00,
2013-07-18 22:55:00,83.5,61.7,29.98,East,90,11.2,11.2,48,0.00,,,0.00,WUHU216HW,2013-07-19 05:55:00,
2013-07-18 23:05:00,83.5,61.7,29.98,East,90,8.5,8.9,48,0.00,,,0.00,WUHU216HW,2013-07-19 06:05:00,
2013-07-18 23:15:00,83.5,61.1,29.98,East,90,6.7,6.9,47,0.00,,,0.00,WUHU216HW,2013-07-19 06:15:00,
2013-07-18 23:25:00,83.5,61.1,29.98,East,90,6.9,6.9,47,0.00,,,0.00,WUHU216HW,2013-07-19 06:25:00,
2013-07-18 23:35:00,83.5,60.5,29.98,ENE,68,1.3,7.6,46,0.00,,,0.00,WUHU216HW,2013-07-19 06:35:00,
2013-07-18 23:45:00,83.5,59.9,29.98,ESE,113,4.9,9.4,45,0.00,,,0.00,WUHU216HW,2013-07-19 06:45:00,
2013-07-18 23:55:00,83.5,59.9,29.98,NE,45,7.4,9.2,45,0.00,,,0.00,WUHU216HW,2013-07-19 06:55:00,